EW4276 Weather Reports


Display with metric or nautical units.
time (UTC)temp
F
wind
direction
speed
MPH
gust
MPH
rain 1hr
in
rain 24hr
in
rain mn
in
humidity
%
barometer
mb
20260904032326 69 172 3.0 7.0 0.18 0.18 0.18 90 1018.1
20260904031818 69 143 3.0 9.0 0.03 0.03 0.03 90 1018.7
20260904031314 69 126 3.0 11.0 0.01 0.01 0.01 90 1018.4
20260904030826 69 311 6.0 10.0 0.01 0.01 0.01 90 1018.2
20260904030338 70 263 3.0 11.0 0.01 0.01 0.01 89 1018.9
20260904025849 70 270 5.0 14.0 0.01 0.01 0.01 88 1018.9
20260904025320 70 15 6.0 18.0 0.01 0.01 0.01 87 1019.1
20260904024832 71 292 10.0 18.0 0.00 0.00 0.00 85 1018.9
20260904024323 72 304 6.0 19.0 0.00 0.00 0.00 82 1018.3
20260904023815 72 19 9.0 19.0 0.00 0.00 0.00 81 1018.1
20260904023327 73 9 11.0 22.0 0.00 0.00 0.00 78 1017.9
20260904022823 75 290 11.0 25.0 0.00 0.00 0.00 75 1017.9
20260904022315 76 300 16.0 28.0 0.00 0.00 0.00 71 1017.5
20260904021826 77 259 19.0 28.0 0.00 0.00 0.00 70 1017.4
20260904021318 77 317 9.0 13.0 0.00 0.00 0.00 73 1017.4
20260904020852 78 302 11.0 13.0 0.00 0.00 0.00 73 1017.4
20260904020322 78 306 8.0 12.0 0.00 0.00 0.00 73 1017.1
20260904015832 79 309 9.0 15.0 0.00 0.00 0.00 73 1017.0
20260904015324 79 275 10.0 15.0 0.00 0.00 0.00 75 1016.9
20260904014815 80 300 7.0 11.0 0.00 0.00 0.00 77 1016.9
20260904014332 81 292 6.0 15.0 0.00 0.00 0.00 78 1016.7
20260904013844 81 300 10.0 14.0 0.00 0.00 0.00 79 1016.6
20260904013315 81 175 0.0 3.0 0.00 0.00 0.00 79 1016.5
20260904012847 81 175 0.0 0.0 0.00 0.00 0.00 80 1016.1
20260904012318 81 173 0.0 0.0 0.00 0.00 0.00 80 1015.9
20260904011830 81 176 0.0 0.0 0.00 0.00 0.00 80 1015.7
20260904011321 81 170 0.0 0.0 0.00 0.00 0.00 79 1015.8
20260904010854 81 165 0.0 0.0 0.00 0.00 0.00 79 1015.9
20260904010324 82 169 0.0 3.0 0.00 0.00 0.00 79 1015.9
20260904005815 82 169 1.0 4.0 0.00 0.00 0.00 79 1015.8
20260904005331 82 171 0.0 4.0 0.00 0.00 0.00 78 1015.8
20260904004823 82 173 0.0 3.0 0.00 0.00 0.00 77 1015.8
20260904004315 82 173 1.0 3.0 0.00 0.00 0.00 77 1015.9
20260904003827 82 172 0.0 3.0 0.00 0.00 0.00 77 1015.8
20260904003338 82 172 1.0 3.0 0.00 0.00 0.00 77 1015.7
20260904002830 83 171 2.0 4.0 0.00 0.00 0.00 76 1015.6
20260904002342 83 168 1.0 3.0 0.00 0.00 0.00 75 1015.6
20260904001813 83 165 1.0 4.0 0.00 0.00 0.00 75 1015.6
20260904001325 83 169 0.0 3.0 0.00 0.00 0.00 74 1015.8
20260904000821 84 168 0.0 2.0 0.00 0.00 0.00 74 1015.9
20260904000333 84 175 0.0 2.0 0.00 0.00 0.00 74 1015.9
20260903235823 84 163 0.0 1.0 0.00 0.00 0.00 74 1016.0
20260903235316 84 158 0.0 2.0 0.00 0.00 0.00 73 1016.1
20260903234828 84 158 0.0 2.0 0.00 0.00 0.00 73 1016.3
20260903234321 84 161 0.0 2.0 0.00 0.00 0.00 73 1016.3
20260903233812 84 163 0.0 0.0 0.00 0.00 0.00 73 1016.3
20260903233325 85 181 0.0 0.0 0.00 0.00 0.00 73 1016.4
20260903232821 85 170 0.0 0.0 0.00 0.00 0.00 72 1016.5
20260903232314 85 169 0.0 3.0 0.00 0.00 0.00 72 1016.3
20260903231826 85 170 0.0 3.0 0.00 0.00 0.00 72 1016.3
20260903231339 85 193 0.0 3.0 0.00 0.00 0.00 71 1016.1
20260903230831 85 178 0.0 2.0 0.00 0.00 0.00 72 1015.8
20260903230322 86 177 0.0 3.0 0.00 0.00 0.00 71 1015.5
20260903225854 86 177 0.0 3.0 0.00 0.00 0.00 71 1015.5
20260903225325 86 173 0.0 3.0 0.00 0.00 0.00 71 1015.4
20260903224817 86 172 0.0 7.0 0.00 0.00 0.00 70 1015.5
20260903224313 86 182 2.0 7.0 0.00 0.00 0.00 69 1015.3
20260903223825 87 179 3.0 7.0 0.00 0.00 0.00 69 1015.4
20260903223317 87 188 2.0 7.0 0.00 0.00 0.00 68 1015.3
20260903222830 88 175 2.0 7.0 0.00 0.00 0.00 67 1015.5
20260903222322 88 182 2.0 7.0 0.00 0.00 0.00 66 1015.5
20260903221813 88 175 3.0 7.0 0.00 0.00 0.00 66 1015.4
20260903221326 88 163 2.0 8.0 0.00 0.00 0.00 65 1015.2
20260903220818 88 175 3.0 8.0 0.00 0.00 0.00 64 1015.2
20260903220315 89 175 1.0 7.0 0.00 0.00 0.00 64 1015.2
20260903215826 89 161 1.0 4.0 0.00 0.00 0.00 64 1015.0
20260903215317 89 146 2.0 4.0 0.00 0.00 0.00 64 1015.0
20260903214850 89 168 1.0 8.0 0.00 0.00 0.00 63 1014.8
20260903214320 89 172 1.0 8.0 0.00 0.00 0.00 63 1014.9
20260903213853 89 174 2.0 7.0 0.00 0.00 0.00 63 1015.0
20260903213324 89 186 3.0 7.0 0.00 0.00 0.00 64 1014.9
20260903212816 89 74 1.0 6.0 0.00 0.00 0.00 64 1015.0
20260903212328 89 269 1.0 6.0 0.00 0.00 0.00 63 1015.0
20260903211821 89 166 3.0 6.0 0.00 0.00 0.00 63 1015.1
20260903211316 89 223 2.0 6.0 0.00 0.00 0.00 63 1015.2
20260903210849 89 159 2.0 9.0 0.00 0.00 0.00 63 1015.2
20260903210320 89 184 3.0 9.0 0.00 0.00 0.00 63 1015.3
20260903205830 89 153 3.0 8.0 0.00 0.00 0.00 62 1015.4
20260903205344 89 171 3.0 6.0 0.00 0.00 0.00 64 1015.3
20260903204816 90 32 2.0 5.0 0.00 0.00 0.00 63 1015.3
20260903204328 90 142 0.0 6.0 0.00 0.00 0.00 64 1015.3
20260903203819 90 127 4.0 8.0 0.00 0.00 0.00 62 1015.3
20260903203352 90 144 2.0 8.0 0.00 0.00 0.00 62 1015.4
20260903202825 90 316 3.0 7.0 0.00 0.00 0.00 61 1015.4
20260903202321 90 162 1.0 7.0 0.00 0.00 0.00 63 1015.5
20260903201813 90 282 3.0 7.0 0.00 0.00 0.00 63 1015.6
20260903201325 90 174 4.0 7.0 0.00 0.00 0.00 63 1015.8
20260903200816 90 168 2.0 6.0 0.00 0.00 0.00 63 1015.9
20260903200329 90 169 4.0 10.0 0.00 0.00 0.00 61 1015.8
20260903195820 90 146 4.0 10.0 0.00 0.00 0.00 61 1015.9
20260903195331 90 161 4.0 10.0 0.00 0.00 0.00 64 1016.0
20260903194823 89 157 4.0 9.0 0.00 0.00 0.00 64 1016.1
20260903194319 89 175 5.0 9.0 0.00 0.00 0.00 64 1016.1
20260903193831 89 179 6.0 8.0 0.00 0.00 0.00 64 1016.2
20260903193323 89 170 1.0 8.0 0.00 0.00 0.00 65 1016.3
20260903192815 89 173 4.0 9.0 0.00 0.00 0.00 64 1016.5
20260903192326 89 177 6.0 9.0 0.00 0.00 0.00 64 1016.6
20260903191818 89 169 5.0 9.0 0.00 0.00 0.00 64 1016.6
20260903191331 88 182 5.0 9.0 0.00 0.00 0.00 66 1016.7
20260903190822 88 172 6.0 9.0 0.00 0.00 0.00 66 1016.8
20260903190318 88 173 3.0 8.0 0.00 0.00 0.00 68 1016.9
20260903185851 87 158 3.0 9.0 0.00 0.00 0.00 68 1016.9
20260903185321 87 175 4.0 9.0 0.00 0.00 0.00 68 1017.0
20260903184853 87 173 6.0 9.0 0.00 0.00 0.00 66 1017.0
20260903184324 87 169 4.0 9.0 0.00 0.00 0.00 67 1017.2
20260903183836 87 171 4.0 11.0 0.00 0.00 0.00 68 1017.2
20260903183327 87 169 4.0 11.0 0.00 0.00 0.00 68 1017.2
20260903182818 86 145 4.0 8.0 0.00 0.00 0.00 67 1017.2
20260903182331 85 167 6.0 9.0 0.00 0.00 0.00 68 1017.2
20260903181822 85 167 4.0 8.0 0.00 0.00 0.00 70 1017.3
20260903181339 84 161 2.0 8.0 0.00 0.00 0.00 69 1017.3
20260903180830 84 138 4.0 8.0 0.00 0.00 0.00 69 1017.4
20260903180322 84 201 6.0 9.0 0.00 0.00 0.00 69 1017.3
20260903175813 84 190 5.0 9.0 0.00 0.00 0.00 69 1017.3
20260903175325 84 175 6.0 9.0 0.00 0.00 0.00 71 1017.4
20260903174817 83 202 5.0 12.0 0.00 0.00 0.00 73 1017.7
20260903174329 82 165 7.0 10.0 0.00 0.00 0.00 75 1017.9
20260903173821 81 175 3.0 7.0 0.00 0.00 0.00 76 1018.0
20260903173353 81 163 4.0 8.0 0.00 0.00 0.00 76 1018.2
20260903172828 80 158 3.0 7.0 0.00 0.00 0.00 80 1018.3
20260903172320 79 162 3.0 6.0 0.00 0.00 0.00 78 1018.3
20260903171853 79 163 4.0 6.0 0.00 0.00 0.00 77 1018.4
20260903171323 79 169 4.0 8.0 0.00 0.00 0.00 76 1018.5
20260903170815 79 171 3.0 6.0 0.00 0.00 0.00 76 1018.6
20260903170327 79 171 2.0 6.0 0.00 0.00 0.00 77 1018.7
20260903165819 78 175 2.0 6.0 0.00 0.00 0.00 78 1018.8
20260903165331 78 174 2.0 6.0 0.00 0.00 0.00 77 1018.9
20260903164823 78 185 2.0 5.0 0.00 0.00 0.00 76 1018.8
20260903164318 79 171 3.0 4.0 0.00 0.00 0.00 75 1019.0
20260903163830 79 169 1.0 7.0 0.00 0.00 0.00 73 1019.1
20260903163322 79 173 3.0 7.0 0.00 0.00 0.00 72 1018.9
20260903162815 80 154 5.0 7.0 0.00 0.00 0.00 73 1019.1
20260903162327 79 170 4.0 7.0 0.00 0.00 0.00 73 1019.5
20260903161819 79 161 1.0 5.0 0.00 0.00 0.00 74 1019.4
20260903161331 79 166 3.0 5.0 0.00 0.00 0.00 75 1019.4
20260903160843 79 308 1.0 6.0 0.00 0.00 0.00 75 1019.5
20260903160319 79 293 2.0 6.0 0.00 0.00 0.00 74 1019.7
20260903155828 79 142 1.0 5.0 0.00 0.00 0.00 76 1019.7
20260903155319 78 175 2.0 6.0 0.00 0.00 0.00 77 1019.7
20260903154831 77 177 3.0 5.0 0.00 0.00 0.00 79 1019.8
20260903154322 77 175 2.0 5.0 0.00 0.00 0.00 80 1019.8
20260903153813 76 165 2.0 5.0 0.00 0.00 0.00 79 1019.7
20260903153326 76 154 1.0 8.0 0.00 0.00 0.00 80 1019.5
20260903152817 76 309 3.0 8.0 0.00 0.00 0.00 81 1019.6
20260903152314 76 290 3.0 10.0 0.00 0.00 0.00 80 1019.7
20260903151826 76 315 6.0 10.0 0.00 0.00 0.00 81 1019.8
20260903151337 76 36 3.0 12.0 0.00 0.00 0.00 83 1019.5
20260903150849 75 9 5.0 13.0 0.00 0.00 0.00 87 1019.8
20260903150318 74 304 10.0 14.0 0.00 0.00 0.00 87 1019.8
20260903145828 74 313 11.0 14.0 0.00 0.00 0.00 87 1019.7
20260903145320 74 287 8.0 16.0 0.00 0.00 0.00 88 1019.6
20260903144851 74 310 6.0 22.0 0.00 0.00 0.00 87 1019.6
20260903144321 75 279 12.0 18.0 0.00 0.00 0.00 84 1019.8
20260903143814 75 175 3.0 7.0 0.00 0.00 0.00 86 1019.1
20260903143327 75 184 5.0 11.0 0.00 0.00 0.00 86 1019.0
20260903142822 74 181 6.0 11.0 0.00 0.00 0.00 87 1019.0
20260903142314 74 164 1.0 3.0 0.00 0.00 0.00 88 1019.1
20260903141826 74 15 0.0 3.0 0.00 0.00 0.00 87 1019.3
20260903141319 74 311 1.0 3.0 0.00 0.00 0.00 88 1019.5
20260903140831 74 19 0.0 1.0 0.00 0.00 0.00 88 1019.4
20260903140323 73 18 0.0 5.0 0.00 0.00 0.00 89 1019.1
20260903135815 73 315 2.0 5.0 0.00 0.00 0.00 88 1019.3
20260903135327 73 295 0.0 3.0 0.00 0.00 0.00 87 1019.0
20260903134823 73 166 0.0 3.0 0.00 0.00 0.00 87 1019.0
20260903134314 73 171 1.0 5.0 0.00 0.00 0.00 88 1019.0
20260903133826 73 167 3.0 5.0 0.00 0.00 0.00 88 1018.8
20260903133318 73 173 1.0 4.0 0.00 0.00 0.00 88 1018.9
20260903132832 73 171 2.0 4.0 0.00 0.00 0.00 88 1019.0
20260903132323 73 163 0.0 1.0 0.00 0.00 0.00 88 1019.2
20260903131815 73 164 0.0 2.0 0.00 0.00 0.00 88 1019.3
20260903131328 72 165 0.0 2.0 0.00 0.00 0.00 89 1019.4
20260903130823 72 302 0.0 0.0 0.00 0.00 0.00 90 1019.2
20260903130315 71 169 0.0 0.0 0.00 0.00 0.00 91 1019.0
20260903125825 71 178 0.0 2.0 0.00 0.00 0.00 91 1019.1
20260903125316 71 177 0.0 4.0 0.00 0.00 0.00 91 1019.1
20260903124829 71 175 0.0 4.0 0.00 0.00 0.00 91 1019.3
20260903124341 71 155 0.0 3.0 0.00 0.00 0.00 92 1019.4
20260903123832 70 171 0.0 1.0 0.00 0.00 0.00 92 1019.5
20260903123324 70 170 0.0 1.0 0.00 0.00 0.00 92 1019.7
20260903122819 70 171 0.0 3.0 0.00 0.00 0.00 92 1019.7
20260903122332 70 171 1.0 3.0 0.00 0.00 0.00 92 1019.7
20260903121824 70 51 1.0 5.0 0.00 0.00 0.00 92 1019.7
20260903121316 70 38 3.0 9.0 0.00 0.00 0.00 93 1019.8
20260903120828 70 9 5.0 9.0 0.00 0.00 0.00 93 1020.1
20260903120321 70 51 2.0 10.0 0.00 0.00 0.00 93 1019.9
20260903115830 70 360 6.0 10.0 0.00 0.00 0.00 94 1020.1
20260903115321 69 39 2.0 6.0 0.00 0.00 0.00 94 1019.8
20260903114817 69 43 1.0 6.0 0.00 0.00 0.00 94 1019.7
20260903114349 70 32 3.0 6.0 0.00 0.00 0.00 94 1019.6
20260903113841 69 56 4.0 6.0 0.00 0.00 0.00 94 1019.7
20260903113353 70 67 3.0 6.0 0.00 0.00 0.00 94 1019.7
20260903112845 69 36 2.0 6.0 0.00 0.00 0.00 94 1019.7
20260903112315 69 33 3.0 8.0 0.00 0.00 0.00 94 1019.6
20260903111827 69 36 3.0 8.0 0.00 0.00 0.00 94 1019.5
20260903111319 69 55 2.0 5.0 0.00 0.00 0.00 93 1019.6
20260903110831 69 63 3.0 5.0 0.00 0.00 0.00 93 1019.3
20260903110323 69 44 1.0 6.0 0.00 0.00 0.00 93 1019.1
20260903105833 69 30 2.0 11.0 0.00 0.00 0.00 93 1019.0
20260903105329 69 50 4.0 11.0 0.00 0.00 0.00 93 1019.0
20260903104820 69 20 3.0 11.0 0.00 0.00 0.00 93 1018.9
20260903104331 70 20 6.0 11.0 0.00 0.00 0.00 93 1018.9
20260903103824 70 28 5.0 10.0 0.00 0.00 0.00 92 1018.7
20260903103316 70 45 6.0 11.0 0.00 0.00 0.00 92 1018.6
20260903102828 70 30 5.0 11.0 0.00 0.00 0.00 92 1018.6
20260903102320 70 46 4.0 10.0 0.00 0.00 0.00 91 1018.4
20260903101833 71 24 4.0 9.0 0.00 0.00 0.00 91 1018.1
20260903101329 71 57 4.0 9.0 0.00 0.00 0.00 90 1017.8
20260903100821 72 49 3.0 9.0 0.00 0.00 0.00 89 1017.6
20260903100332 73 70 4.0 9.0 0.00 0.00 0.00 87 1017.6
20260903095821 74 52 3.0 9.0 0.00 0.00 0.00 85 1017.5
20260903095333 75 33 4.0 9.0 0.00 0.00 0.00 82 1017.5
20260903094824 76 176 0.0 0.0 0.00 0.00 0.00 79 1017.3
20260903094316 77 176 0.0 2.0 0.00 0.00 0.00 78 1017.3
20260903093829 77 176 0.0 5.0 0.00 0.00 0.00 76 1017.2
20260903093324 77 186 1.0 5.0 0.00 0.00 0.00 76 1017.1
20260903092836 77 174 3.0 5.0 0.00 0.00 0.00 76 1017.2
20260903092328 77 167 1.0 4.0 0.00 0.00 0.00 76 1017.3
20260903091820 77 172 1.0 4.0 0.00 0.00 0.00 77 1017.2
20260903091332 77 180 1.0 4.0 0.00 0.00 0.00 77 1017.2
20260903090844 77 165 1.0 4.0 0.00 0.00 0.00 77 1017.2
20260903090316 77 184 0.0 5.0 0.00 0.00 0.00 77 1017.2
20260903085825 77 168 1.0 5.0 0.00 0.00 0.00 77 1017.2
20260903085316 77 163 2.0 4.0 0.00 0.00 0.00 77 1017.3
20260903084828 77 169 2.0 5.0 0.00 0.00 0.00 77 1017.1
20260903084324 77 178 2.0 5.0 0.00 0.00 0.00 78 1017.2
20260903083836 77 177 2.0 5.0 0.00 0.00 0.00 78 1017.1
20260903083327 77 166 2.0 5.0 0.00 0.00 0.00 78 1017.1
20260903082820 77 173 3.0 6.0 0.00 0.00 0.00 78 1017.0
20260903082331 77 149 3.0 6.0 0.00 0.00 0.00 78 1016.9
20260903081823 77 173 3.0 6.0 0.00 0.00 0.00 78 1016.9
20260903081315 77 173 4.0 7.0 0.00 0.00 0.00 78 1016.9
20260903080828 77 172 4.0 7.0 0.00 0.00 0.00 79 1016.9
20260903080323 76 162 4.0 7.0 0.00 0.00 0.00 80 1016.9
20260903075833 76 172 3.0 7.0 0.00 0.00 0.00 81 1017.0
20260903075345 76 171 3.0 6.0 0.00 0.00 0.00 81 1017.0
20260903074815 76 184 4.0 6.0 0.00 0.00 0.00 82 1017.0
20260903074327 76 161 3.0 6.0 0.00 0.00 0.00 82 1016.9
20260903073819 76 155 2.0 5.0 0.00 0.00 0.00 83 1017.0
20260903073332 76 153 3.0 7.0 0.00 0.00 0.00 83 1017.0
20260903072824 75 173 3.0 7.0 0.00 0.00 0.00 84 1017.0
20260903072315 75 169 2.0 5.0 0.00 0.00 0.00 84 1017.1
20260903071831 75 175 2.0 6.0 0.00 0.00 0.00 84 1017.0
20260903071344 76 148 3.0 7.0 0.00 0.00 0.00 83 1017.1
20260903070815 76 169 4.0 7.0 0.00 0.00 0.00 83 1017.1
20260903070327 76 172 2.0 8.0 0.00 0.00 0.00 83 1017.1
20260903065817 76 170 4.0 8.0 0.00 0.00 0.00 82 1017.0
20260903065349 76 169 5.0 8.0 0.00 0.00 0.00 82 1017.0
20260903064819 76 187 4.0 8.0 0.00 0.00 0.00 82 1016.9
20260903064332 76 170 4.0 8.0 0.00 0.00 0.00 82 1017.0
20260903063843 76 189 4.0 10.0 0.00 0.00 0.00 82 1017.0
20260903063354 77 147 5.0 10.0 0.00 0.00 0.00 81 1016.9
20260903062826 77 171 4.0 6.0 0.00 0.00 0.00 81 1017.0
20260903062322 77 169 4.0 6.0 0.00 0.00 0.00 81 1016.9
20260903061814 77 177 3.0 7.0 0.00 0.00 0.00 81 1016.9
20260903061326 77 163 4.0 7.0 0.00 0.00 0.00 81 1017.0
20260903060817 77 171 3.0 7.0 0.00 0.00 0.00 81 1016.9
20260903060349 77 163 3.0 7.0 0.00 0.00 0.00 81 1017.0
20260903055838 77 175 4.0 7.0 0.00 0.00 0.00 81 1017.0
20260903055328 77 172 3.0 7.0 0.00 0.00 0.00 81 1017.0
20260903054819 76 176 2.0 5.0 0.00 0.00 0.00 82 1017.1
20260903054333 76 181 2.0 6.0 0.00 0.00 0.00 82 1017.1
20260903053829 76 177 3.0 6.0 0.00 0.00 0.00 82 1017.1
20260903053320 77 165 3.0 8.0 0.00 0.00 0.00 81 1017.2
20260903052813 77 170 3.0 8.0 0.00 0.00 0.00 81 1017.1
20260903052325 77 171 4.0 7.0 0.00 0.00 0.00 81 1017.1
20260903051817 77 166 4.0 7.0 0.00 0.00 0.00 81 1017.3
20260903051329 77 171 2.0 6.0 0.00 0.00 0.00 80 1017.3
20260903050821 77 163 1.0 8.0 0.00 0.00 0.00 80 1017.3
20260903050333 77 170 2.0 6.0 0.00 0.00 0.00 80 1017.3
20260903045843 77 169 3.0 5.0 0.00 0.00 0.00 80 1017.5
20260903045338 77 153 2.0 5.0 0.00 0.00 0.00 80 1017.4
20260903044830 77 170 4.0 6.0 0.00 0.00 0.00 80 1017.4
20260903044320 77 170 2.0 6.0 0.00 0.00 0.00 80 1017.4
20260903043832 78 169 2.0 5.0 0.00 0.00 0.00 80 1017.4
20260903043324 78 175 3.0 5.0 0.00 0.00 0.00 80 1017.5
20260903042815 78 167 2.0 6.0 0.00 0.00 0.00 80 1017.5
20260903042349 78 170 3.0 6.0 0.00 0.00 0.00 80 1017.5
20260903041840 78 175 2.0 6.0 0.00 0.00 0.00 79 1017.5
20260903041331 78 194 3.0 7.0 0.00 0.00 0.00 79 1017.6
20260903040843 78 175 3.0 6.0 0.00 0.00 0.00 79 1017.6
20260903040318 78 167 3.0 6.0 0.00 0.00 0.00 79 1017.7
20260903035829 78 173 3.0 8.0 0.00 0.00 0.00 79 1017.7
20260903035341 78 173 3.0 8.0 0.00 0.00 0.00 79 1017.6
20260903034832 78 167 4.0 8.0 0.00 0.00 0.00 79 1017.7
20260903034323 78 165 5.0 9.0 0.00 0.00 0.00 79 1017.6
20260903033816 78 171 4.0 7.0 0.00 0.00 0.00 79 1017.6
20260903033327 78 175 4.0 7.0 0.00 0.00 0.00 79 1017.6
20260903032839 78 180 4.0 7.0 0.00 0.00 0.00 79 1017.6